SCOUT A DEB, 4555

Orbit data source: Space-Track

SCOUT A DEB, 4555 is space debris in LEO originally from a launch on Thu, 19 May 1966 UTC launched from the Air Force Western Test Range (AFWTR). Debris objects in space refer to the collection of defunct objects orbiting the Earth. Examples of debris include non-operational satellites, rocket bodies, and fragments generated from explosions, collisions, or faulty payload assembly.

Loading next visibility...
Identifier
4555, 1966-041F
Orbit
LEO
Last TLE update
19 hours ago
Origin
Manufacturer
Unknown
Mission
Spacecraft
Bus & Motor
Unknown
Mass
Unknown
Launch date (UTC)
1966-05-19 (59 years ago)
Launch vehicle
Unknown
Launch site
Air Force Western Test Range (AFWTR)
Object type
Payload
Rocket body
Debris
Shape & HBR
Unknown
Radar Cross Section
Small (<0.1 m²)

Expand to show TLE details & history

TLE from 19 hours ago
0 SCOUT A DEB
1  4555U 66041F   25199.58191359  .00001789  00000-0  45144-3 0  9999
2  4555  90.2035  66.4330 0042024 167.8974 192.3253 14.50272202376125
Epoch: 2025-07-18T13:57Z
TLE epoch observation values (Epoch: 2025-07-18T13:57:57.334Z)
Latitude
-0.00004°
Longitude
-79.6872°
Altitude
757.031 km
Speed
7.46 km/s
True Right ascension
04h 25m 43s
True Declination
0° 00' 00"
Sunlit
Object was in daylight at epoch
Visualization orbit readout
Latitude
21.60441°
Longitude
100.41209°
Altitude
697.926 km
Speed
7.525 km/s
Apparent Right ascension
13h 44m 58s
Apparent Declination
-11° 14' 32"
Sunlit
Object is in daylight
Visualization observer readout
Local Sidereal Time
21:43:42
Azimuth
280.773° WNW
Elevation
-29.843°
Doppler factor
1
Orbital elements
Apogee altitude
751.501 km
Perigee altitude
691.829 km
Semi-major axis
7,099.802 km
Eccentricity
0.0042
Inclination
90.2035°
RAAN
66.433°
Arg. of periapsis
167.8974°
True anomaly
192.22303°
Mean anomaly
192.3253°
Eccentric anomaly
192.27411°
Mean motion
3.62805 °/min
Orbital period
99.23 mins
BSTAR
0.00045144
Loading maneuver chart data...
Loading SW <> Apogee altitude chart data...
Loading historical data...
Loading historical data...
Loading historical data...
Loading historical data...
Loading historical data...
Loading historical data...
Loading historical data...
|